Regional Weather Roundup
Issued by NWS

Home | Current Version | Previous Version | Graphics & Text | Print | Product List | Glossary On
Versions: 1 2 3 4 5 6 7 8 9 10 11 12 13 14 15 16 17 18 19 20 21 22 23 24 25 26 27 28 29 30 31 32 33 34 35 36 37 38 39 40 41 42 43 44 45 46 47 48 49 50
000
ASUS43 KOAX 231102
RWRNE

WEATHER ROUNDUP FOR NEBRASKA
NATIONAL WEATHER SERVICE OMAHA NE
500 AM CST THU FEB 23 2017

NOTES: SATELLITE DATA IS BEING USED TO AUGMENT CLOUD COVER ABOVE
       12000 FEET.
       "FAIR" INDICATES FEW OR NO CLOUDS BELOW 12,000 FEET WITH NO
       SIGNIFICANT WEATHER AND/OR OBSTRUCTIONS TO VISIBILITY.

  * THESE STATIONS DO NOT REPORT WEATHER SUCH AS RAIN...SNOW OR FOG.

NEZ001>004-019>022-054>056-231200-
NEBRASKA PANHANDLE

CITY           SKY/WX    TMP DP  RH WIND       PRES   REMARKS
SCOTTSBLUFF    LGT SNOW  30  27  88 E14       29.73F VSB 3/4 WCI  19
ALLIANCE       LGT SNOW  29  27  92 NE10      29.73F FOG     WCI  20
CHADRON        LGT SNOW  30  28  92 NE12      29.80F VSB 3/4 WCI  20
KIMBALL        CLOUDY    32  32  99 NE15      29.66S WCI  22
SIDNEY         CLOUDY    31  28  89 E20       29.68F WCI  19
$$

NEZ057>060-069>072-079>082-231200-
SOUTHWEST NEBRASKA

CITY           SKY/WX    TMP DP  RH WIND       PRES   REMARKS
NORTH PLATTE   CLOUDY    35  32  88 NE16      29.75F WCI  25
IMPERIAL       CLOUDY    33  30  88 NE22      29.70F WCI  21
LEXINGTON      CLOUDY    37  34  87 NE18G26   29.75S WCI  27
MCCOOK         CLOUDY    39  36  89 NE21G31   29.69F WCI  29
OGALLALA       CLOUDY    34  31  89 E21       29.73S WCI  22
$$

NEZ005>010-023>029-035>040-094-231200-
NORTH CENTRAL NEBRASKA

CITY           SKY/WX    TMP DP  RH WIND       PRES   REMARKS
VALENTINE      LGT SNOW  28  25  88 NE14G23   29.85R FOG     WCI  17
AINSWORTH      FLURRIES  29  29 100 NE17      29.84R WCI  17
BROKEN BOW     CLOUDY    34  32  92 NE14      29.78S WCI  25
O`NEILL        CLOUDY    31  30  96 N14G21    29.84S WCI  21
ORD            CLOUDY    32  29  88 NE16      29.81S WCI  21
THEDFORD       CLOUDY    32  31  98 NE12      29.81R FOG     WCI  23
$$

NEZ041-046>049-061>064-073>077-083>087-231200-
SOUTH CENTRAL NEBRASKA

CITY           SKY/WX    TMP DP  RH WIND       PRES   REMARKS
GRAND ISLAND   CLOUDY    37  35  92 NE17      29.78F WCI  27
AURORA         CLOUDY    38  35  92 NE16G25   29.77F WCI  28
HASTINGS       CLOUDY    39  35  86 NE24      29.75F WCI  28
HEBRON         MOCLDY    42  36  80 NE12      29.74S
HOLDREGE       CLOUDY    38  35  86 NE18G28   29.72F WCI  29
KEARNEY *      CLOUDY    37  30  75 NE18      29.76F WCI  27
YORK           CLOUDY    37  36  93 NE21      29.78R WCI  27
$$

NEZ011>018-030>034-042>045-231200-
NORTHEAST NEBRASKA

CITY           SKY/WX    TMP DP  RH WIND       PRES   REMARKS
NORFOLK        CLOUDY    33  30  88 NE15      29.82F WCI  23
ALBION         CLOUDY    34  32  91 NE13      29.83R WCI  25
BLAIR          CLOUDY    38  35  90 N10       29.80R WCI  31
FREMONT        CLOUDY    37  35  90 NE9       29.82R WCI  31
TEKAMAH        CLOUDY    37  33  85 NE16      29.82S WCI  28
WAYNE          CLOUDY    34  32  92 NE18      29.84S WCI  23
$$

NEZ050>053-065>068-078-088>093-231200-
SOUTHEAST NEBRASKA

CITY           SKY/WX    TMP DP  RH WIND       PRES   REMARKS
LINCOLN        CLOUDY    40  37  89 NE20      29.78S WCI  30
OMAHA EPPLEY   CLOUDY    39  34  82 N20       29.80R WCI  29
BEATRICE       CLOUDY    43  38  83 NE7       29.75S
FALLS CITY     CLOUDY    44  38  79 N6        29.75R
NEBRASKA CITY  CLOUDY    41  35  79 NE18      29.76R
PLATTSMOUTH    CLOUDY    38  34  84 N15G24    29.78R WCI  29
$$

NEZ044-045-051>053-067-231200-
OMAHA AREA

CITY           SKY/WX    TMP DP  RH WIND       PRES   REMARKS
OMAHA EPPLEY   CLOUDY    39  34  82 N20       29.80R WCI  29
BLAIR          CLOUDY    38  35  90 N10       29.80R WCI  31
FREMONT        CLOUDY    37  35  90 NE9       29.82R WCI  31
MILLARD        CLOUDY    42  37  82 N7        29.80R
OFFUTT AFB     CLOUDY    39  34  83 N15G21    29.79S WCI  31
PLATTSMOUTH    CLOUDY    38  34  84 N15G24    29.78R WCI  29
WAHOO          CLOUDY    38  35  87 NE16      29.79F WCI  30
$$



USA.gov is the U.S. government's official web portal to all federal, state and local government web resources and services.